[[{"header":{"parameterUnit":"m.s-1","parameterCategory":2,"la1":30.2991,"la2":30.254,"lo1":-89.0895,"lo2":-89.0444,"dy":0.0017,"dx":0.0017,"nx":28,"ny":28,"refTime":"2024-02-04T03:00:00:Z","depth":"0","parameterNumber":2,"parameterNumberName":"U-component_of_CURRENTS"},"data":[0,0,0,0,0,0,0,0,0,0,0,0,0,0,0,0,0,0,0,0,0,0,0,0,0,0,0,0,0,0,0,0,0,0,0,0,0,0,0,0,0,0,0,0,0,0,0,0,0,0,0,0,0,0,0,0,0,0,0.3746,0.3747,0,0.3812,0.3812,0.3812,0.3822,0.3822,0.3822,0.3822,0.3852,0.3853,0.3854,0,0,0,0,0,0,0,0,0,0,0,0,0,0.3664,0.3665,0.3746,0.3747,0.3748,0.3812,0.3812,0.3813,0.3822,0.3822,0.3822,0.3822,0.3852,0.3853,0.3854,0,0,0,0,0,0,0,0,0,0,0,0,0,0.3706,0.3665,0.3745,0.3765,0.3768,0.3812,0.3812,0.3813,0.3822,0.3822,0.3822,0.3822,0.3851,0.3853,0.3854,0.3865,0,0,0.3858,0.3859,0,0,0,0,0,0,0,0,0.3704,0.3708,0.3761,0.3764,0.3767,0.3814,0.3795,0.383,0.3822,0.3796,0.3822,0.3822,0.384,0.3842,0.3847,0.3866,0.3868,0.3858,0.3859,0.386,0.386,0,0,0,0,0,0,0,0.3701,0.3706,0.3766,0.3762,0.3766,0.3783,0.3788,0.3801,0.3813,0.3798,0.38,0.3816,0.384,0.3846,0.3848,0.3868,0.3858,0.3859,0.386,0.3861,0.3969,0.3971,0,0,0,0,0,0,0.3702,0.3703,0.3764,0.3769,0.3741,0.3785,0.379,0.3794,0.3813,0.3818,0.3817,0.3817,0.3844,0.3846,0.3849,0.3926,0.386,0.3861,0.3862,0.3967,0.3969,0.3971,0,0,0,0,0,0,0.37,0.3706,0.3762,0.3743,0.3751,0.3787,0.3791,0.3796,0.3808,0.3829,0.3832,0.3826,0.3844,0.3847,0.3878,0.3925,0.3861,0.3863,0.3964,0.3967,0.397,0.4039,0,0,0,0,0,0,0.3697,0.3705,0.3707,0.3742,0.3753,0.3796,0.3792,0.3797,0.3821,0.3821,0.3838,0.384,0.3844,0.3876,0.3879,0.3925,0.3864,0.3962,0.3966,0.3969,0.4034,0.4044,0.4053,0,0,0,0,0,0.3693,0.3692,0.3706,0.3714,0.3754,0.3798,0.3804,0.3825,0.3821,0.3833,0.3849,0.384,0.3904,0.3878,0.3882,0.3929,0.396,0.3964,0.3969,0.403,0.4042,0.4053,0,0,0,0,0,0,0.3648,0.3694,0.371,0.372,0.3764,0.3802,0.3813,0.3829,0.3849,0.385,0.3857,0.3861,0.3913,0.3907,0.388,0.3974,0.3934,0.394,0.398,0.3991,0.4,0.4021,0.3865,0,0,0,0,0,0.3644,0.3655,0.3709,0.3717,0.374,0.3778,0.3797,0.3819,0.3846,0.3854,0.3869,0.3893,0.3934,0.3949,0.3976,0.4015,0.4027,0.4051,0.4061,0.4068,0.4089,0.4147,0.4164,0.3987,0.3987,0.3986,0,0,0.3625,0.3655,0.3659,0.371,0.374,0.3792,0.3787,0.3824,0.3875,0.3855,0.3909,0.3924,0.3953,0.4009,0.4032,0.4009,0.4125,0.4074,0.4081,0.4098,0.4154,0.4171,0.4186,0.399,0.3989,0.3989,0,0,0.3617,0.3627,0.3651,0.3695,0.3759,0.3792,0.3807,0.3858,0.3886,0.394,0.3954,0.3995,0.4035,0.4078,0.4103,0.4177,0.4174,0.4185,0.4247,0.4303,0.4318,0.4332,0.4364,0.438,0.4187,0.4187,0.4188,0,0.3592,0.3646,0.3664,0.3717,0.3766,0.3797,0.3858,0.3894,0.395,0.3991,0.3966,0.4066,0.4078,0.4177,0.4208,0.4201,0.4222,0.42,0.4316,0.4329,0.4342,0.4371,0.4388,0.4191,0.4191,0.4191,0.419,0,0.3629,0.3679,0.3697,0.378,0.3824,0.3878,0.3947,0.3992,0.4023,0.4068,0.4157,0.4175,0.4238,0.4252,0.4254,0.4362,0.4344,0.4321,0.4285,0.4364,0.439,0.4406,0.4197,0.4196,0.4194,0.4193,0,0,0.3568,0.3698,0.371,0.3773,0.3872,0.3912,0.4003,0.4106,0.417,0.4215,0.4304,0.4371,0.4375,0.4405,0.4412,0.4458,0.4556,0.4432,0.4433,0.4461,0.4673,0.4594,0.4603,0.4553,0.4556,0.4559,0.4652,0,0.3606,0.3717,0.3776,0.3886,0.3958,0.4027,0.4105,0.4193,0.4259,0.4343,0.4392,0.4465,0.4437,0.4466,0.4516,0.4556,0.4603,0.4532,0.4596,0.4598,0.4516,0.4621,0.451,0.4579,0.4668,0.467,0.4672,0,0.365,0.3723,0.3834,0.3972,0.4005,0.406,0.4197,0.4274,0.44,0.4455,0.4538,0.4571,0.4672,0.4612,0.4729,0.4686,0.4695,0.4704,0.4707,0.4625,0.455,0.4518,0.4604,0.4524,0.4696,0.4694,0.4693,0,0.3632,0.3775,0.3864,0.391,0.405,0.4104,0.4173,0.4299,0.4372,0.4522,0.4586,0.4698,0.4756,0.4803,0.4826,0.4794,0.4927,0.4878,0.4815,0.4808,0.4723,0.4702,0.4738,0.4958,0.4958,0.4958,0.4957,0,0.3673,0.3746,0.3853,0.3899,0.3987,0.4088,0.4183,0.4281,0.441,0.4493,0.4623,0.4701,0.4808,0.4885,0.4886,0.4909,0.4979,0.4859,0.4844,0.4741,0.4722,0.4652,0.4604,0.4961,0.496,0.496,0.4959,0,0.3654,0.3735,0.3825,0.3946,0.3981,0.403,0.4156,0.4224,0.437,0.4485,0.4536,0.4734,0.4846,0.4923,0.5013,0.498,0.4881,0.4982,0.4844,0.481,0.4646,0.4605,0.4434,0.4301,0.4942,0.4941,0.494,0,0.3664,0.3707,0.3809,0.3838,0.3886,0.3969,0.4023,0.4174,0.4241,0.4476,0.4518,0.4705,0.4798,0.493,0.4942,0.4968,0.4824,0.4851,0.4765,0.4653,0.46,0.4394,0.4279,0.4682,0.4679,0.4677,0.4675,0,0.3655,0.3671,0.3726,0.3774,0.382,0.3878,0.3963,0.4006,0.4181,0.4286,0.4421,0.4527,0.4722,0.4737,0.4816,0.4805,0.4647,0.4798,0.4739,0.4457,0.4183,0.4041,0.459,0.4653,0.4655,0.4657,0.4658,0.4659,0.3612,0.3618,0.366,0.3685,0.3731,0.3745,0.3721,0.3825,0.389,0.3986,0.4207,0.4305,0.4513,0.4624,0.4585,0.4525,0.4465,0.4441,0.4422,0.4238,0.4041,0.4527,0.4528,0.453,0.4531,0.4532,0.4533,0,0.3523,0.3535,0.357,0.3558,0.3517,0.3598,0.3635,0.3576,0.3553,0.3746,0.383,0.4051,0.4126,0.4255,0.4342,0.4221,0.3997,0.4117,0.3847,0.3767,0.4283,0.4207,0.407,0.407,0.407,0.407,0.407,0.407,0.3478,0.3443,0.3436,0.3317,0.3304,0.3187,0.3154,0.3129,0.3204,0.3274,0.3395,0.3586,0.3962,0.4167,0.4125,0.4018,0.3717,0.3551,0.3497,0.3945,0.3974,0.4001,0.3921,0.3726,0.3725,0.2847,0.2841,0.2836]},{"header":{"parameterUnit":"m.s-1","parameterCategory":2,"la1":30.2991,"la2":30.254,"lo1":-89.0895,"lo2":-89.0444,"dy":0.0017,"dx":0.0017,"nx":28,"ny":28,"refTime":"2024-02-04T03:00:00:Z","depth":"0","parameterNumber":3,"parameterNumberName":"V-component_of_CURRENTS"},"data":[0,0,0,0,0,0,0,0,0,0,0,0,0,0,0,0,0,0,0,0,0,0,0,0,0,0,0,0,0,0,0,0,0,0,0,0,0,0,0,0,0,0,0,0,0,0,0,0,0,0,0,0,0,0,0,0,0,0,-0.0088,-0.0089,0,-0.0164,-0.0164,-0.0165,-0.022,-0.0221,-0.0221,-0.0222,-0.035,-0.0353,-0.0356,0,0,0,0,0,0,0,0,0,0,0,0,0,-0.0033,-0.0033,-0.0088,-0.0089,-0.009,-0.0163,-0.0164,-0.0165,-0.022,-0.0221,-0.0221,-0.0222,-0.0349,-0.0352,-0.0356,0,0,0,0,0,0,0,0,0,0,0,0,0,-0.0076,-0.0033,-0.0087,-0.0127,-0.0131,-0.0163,-0.0164,-0.0166,-0.022,-0.0221,-0.0222,-0.0222,-0.0348,-0.0352,-0.0356,-0.0366,0,0,-0.037,-0.0371,0,0,0,0,0,0,0,0,-0.0074,-0.0078,-0.012,-0.0124,-0.0129,-0.0184,-0.0192,-0.0236,-0.022,-0.0185,-0.0222,-0.0223,-0.03,-0.0308,-0.0318,-0.0372,-0.0377,-0.037,-0.0373,-0.0374,-0.0376,0,0,0,0,0,0,0,-0.007,-0.0075,-0.0117,-0.0121,-0.0127,-0.0155,-0.0162,-0.02,-0.0237,-0.0188,-0.0192,-0.0203,-0.0302,-0.0313,-0.0321,-0.0379,-0.037,-0.0374,-0.0376,-0.0378,-0.0474,-0.0474,0,0,0,0,0,0,-0.006,-0.0072,-0.0114,-0.0119,-0.0104,-0.0156,-0.0163,-0.0165,-0.0235,-0.0247,-0.0202,-0.0205,-0.0306,-0.0316,-0.0326,-0.0339,-0.0374,-0.0378,-0.0381,-0.0474,-0.0474,-0.0474,0,0,0,0,0,0,-0.0059,-0.0063,-0.0111,-0.0099,-0.0107,-0.0155,-0.0157,-0.0166,-0.0176,-0.0245,-0.0258,-0.0203,-0.0307,-0.032,-0.0356,-0.0345,-0.038,-0.0384,-0.0474,-0.0474,-0.0474,-0.0367,0,0,0,0,0,0,-0.0056,-0.0062,-0.0053,-0.0098,-0.0107,-0.012,-0.0157,-0.0167,-0.0182,-0.0186,-0.0251,-0.0263,-0.0308,-0.0349,-0.036,-0.0351,-0.0388,-0.0474,-0.0474,-0.0474,-0.0371,-0.0363,-0.0357,0,0,0,0,0,-0.0054,-0.0034,-0.0052,-0.0057,-0.0096,-0.0119,-0.0126,-0.0164,-0.0181,-0.0177,-0.0223,-0.0261,-0.0357,-0.0352,-0.0365,-0.0357,-0.0474,-0.0474,-0.0474,-0.0374,-0.0365,-0.0357,0,0,0,0,0,0,-0.0002,-0.004,-0.006,-0.0051,-0.0081,-0.0129,-0.0126,-0.0154,-0.0186,-0.0191,-0.0256,-0.0272,-0.0302,-0.0346,-0.0339,-0.0388,-0.0424,-0.0426,-0.0343,-0.0335,-0.0329,-0.0288,-0.0391,0,0,0,0,0,0.0012,0.0015,-0.0029,-0.0022,-0.0031,-0.0077,-0.009,-0.0116,-0.0154,-0.0168,-0.0215,-0.0268,-0.0311,-0.0334,-0.038,-0.0401,-0.0432,-0.0408,-0.0401,-0.0395,-0.0372,-0.0411,-0.0404,-0.0474,-0.0474,-0.0474,0,0,0.0034,0.0014,0.0016,-0.0011,-0.0035,-0.0035,-0.0086,-0.0096,-0.0096,-0.0177,-0.0188,-0.0244,-0.0312,-0.0337,-0.0355,-0.0372,-0.0393,-0.0395,-0.0388,-0.0369,-0.041,-0.0403,-0.0397,-0.0473,-0.0473,-0.0473,0,0,0.008,0.0063,0.0079,0.0062,0.0031,0.0004,0.0004,-0.0039,-0.0057,-0.0081,-0.0138,-0.0179,-0.0249,-0.0287,-0.0318,-0.0301,-0.0356,-0.0327,-0.0257,-0.0295,-0.0289,-0.0284,-0.0311,-0.0309,-0.0323,-0.0323,-0.0323,0,0.0108,0.012,0.0081,0.0091,0.0088,0.0028,0.0047,0.0022,-0.0028,-0.0032,-0.0072,-0.0159,-0.0219,-0.0242,-0.0241,-0.0282,-0.0311,-0.0278,-0.0283,-0.0279,-0.0275,-0.0305,-0.0304,-0.0318,-0.0318,-0.0319,-0.0319,0,0.016,0.0171,0.0182,0.0175,0.0168,0.0175,0.0135,0.0132,0.0096,0.0062,0.0031,-0.0054,-0.01,-0.0136,-0.0185,-0.0192,-0.0223,-0.0267,-0.0294,-0.0261,-0.0295,-0.0296,-0.031,-0.0312,-0.0314,-0.0315,0,0,0.0221,0.0221,0.0223,0.0244,0.0215,0.0221,0.023,0.0223,0.0247,0.0173,0.0191,0.0096,0.0048,0.001,-0.0063,-0.0101,-0.0113,-0.0166,-0.017,-0.0174,-0.0187,-0.0204,-0.0207,-0.0159,-0.0159,-0.0159,-0.0218,0,0.0274,0.0322,0.0299,0.035,0.0376,0.034,0.0359,0.0345,0.0317,0.0319,0.0227,0.0201,0.0102,0.0082,0.003,-0.0071,-0.0111,-0.0091,-0.0234,-0.0237,-0.0241,-0.0208,-0.0178,-0.0228,-0.022,-0.022,-0.022,0,0.0329,0.0358,0.042,0.0457,0.0466,0.0489,0.0529,0.0536,0.0516,0.0493,0.0447,0.0366,0.0303,0.0208,0.0064,0.0081,-0.0037,-0.0126,-0.0132,-0.018,-0.0256,-0.0263,-0.0231,-0.0455,-0.0223,-0.0223,-0.0222,0,0.0402,0.0442,0.0503,0.0513,0.0543,0.058,0.0597,0.0598,0.0633,0.0608,0.0629,0.0515,0.0485,0.0322,0.0128,0.0096,-0.0029,-0.0101,-0.0227,-0.023,-0.0247,-0.0251,-0.0429,-0.0201,-0.0201,-0.0201,-0.02,0,0.0467,0.0515,0.0552,0.059,0.0684,0.0669,0.0763,0.0765,0.0789,0.0856,0.0729,0.0757,0.0512,0.04,0.0194,-0.0001,0.0018,-0.0194,-0.024,-0.0211,-0.0211,-0.0442,-0.056,-0.0203,-0.0202,-0.0202,-0.0202,0,0.0532,0.0549,0.0633,0.0693,0.0724,0.0794,0.0878,0.0944,0.0952,0.1043,0.1041,0.0951,0.0806,0.0553,0.0303,0.0113,-0.0215,-0.018,-0.0121,-0.0159,-0.0492,-0.0603,-0.0811,-0.0901,-0.0321,-0.0322,-0.0322,0,0.0567,0.062,0.0723,0.0788,0.0822,0.092,0.0995,0.1027,0.1107,0.1173,0.1233,0.1123,0.1078,0.0712,0.0341,-0.0006,-0.0232,-0.0211,-0.0275,-0.0487,-0.0646,-0.0738,-0.0806,-0.026,-0.026,-0.026,-0.026,0,0.0644,0.0683,0.0754,0.0893,0.099,0.1103,0.1215,0.1306,0.1368,0.1451,0.1541,0.1512,0.1173,0.0836,0.0356,0.0108,-0.0351,-0.0222,-0.0461,-0.0615,-0.0707,-0.0823,-0.0246,-0.026,-0.026,-0.026,-0.026,-0.026,0.0705,0.077,0.0873,0.1006,0.1124,0.1278,0.1385,0.1515,0.167,0.1816,0.1777,0.1798,0.1311,0.0662,0.0282,-0.0366,-0.0384,-0.057,-0.0686,-0.076,-0.0851,-0.0264,-0.0323,-0.0324,-0.0324,-0.0324,-0.0325,0,0.0778,0.0853,0.0977,0.1138,0.1279,0.1327,0.1527,0.1646,0.1847,0.1996,0.2071,0.1886,0.1261,0.0631,-0.0249,-0.0736,-0.0909,-0.1004,-0.1141,-0.1188,-0.068,-0.0682,-0.0797,-0.0797,-0.0797,-0.0797,-0.0796,-0.0796,0.0818,0.094,0.1004,0.1244,0.1359,0.1549,0.1667,0.186,0.2016,0.2216,0.2275,0.2277,0.1828,0.0184,-0.0947,-0.1209,-0.1533,-0.1611,-0.1792,-0.1468,-0.1437,-0.1408,-0.1439,-0.1712,-0.1713,-0.2233,-0.2239,-0.2243]}],[{"header":{"parameterUnit":"m.s-1","parameterCategory":2,"la1":30.2991,"la2":30.254,"lo1":-89.0895,"lo2":-89.0444,"dy":0.0017,"dx":0.0017,"nx":28,"ny":28,"refTime":"2024-02-04T03:00:00:Z","depth":"2","parameterNumber":2,"parameterNumberName":"U-component_of_CURRENTS"},"data":[0,0,0,0,0,0,0,0,0,0,0,0,0,0,0,0,0,0,0,0,0,0,0,0,0,0,0,0,0,0,0,0,0,0,0,0,0,0,0,0,0,0,0,0,0,0,0,0,0,0,0,0,0,0,0,0,0,0,0.3044,0.3044,0,0.3107,0.3108,0.3109,0.311,0.3109,0.3109,0.3108,0.3141,0.3143,0.3144,0,0,0,0,0,0,0,0,0,0,0,0,0,0.2961,0.2962,0.3044,0.3045,0.3045,0.3107,0.3108,0.3109,0.311,0.3109,0.3108,0.3108,0.3141,0.3143,0.3144,0,0,0,0,0,0,0,0,0,0,0,0,0,0.3006,0.2962,0.3043,0.3055,0.3056,0.3107,0.3108,0.3109,0.311,0.3109,0.3108,0.3107,0.314,0.3142,0.3145,0.3178,0,0,0.3152,0.3152,0,0,0,0,0,0,0,0,0.3004,0.3009,0.3052,0.3054,0.3056,0.3101,0.3091,0.3131,0.311,0.3088,0.3108,0.3107,0.3127,0.313,0.3142,0.318,0.3181,0.3152,0.3153,0.3154,0.3155,0,0,0,0,0,0,0,0.3,0.3007,0.3067,0.3053,0.3056,0.307,0.3074,0.3099,0.311,0.309,0.3091,0.31,0.3127,0.314,0.3143,0.3182,0.3152,0.3154,0.3155,0.3156,0.326,0.3261,0,0,0,0,0,0,0.2995,0.3004,0.3065,0.3069,0.3029,0.3072,0.3077,0.3086,0.3111,0.3114,0.3101,0.31,0.3137,0.3141,0.3144,0.3217,0.3154,0.3156,0.3157,0.3259,0.326,0.3262,0,0,0,0,0,0,0.2993,0.3,0.3063,0.3039,0.3048,0.3074,0.3085,0.3088,0.3116,0.312,0.3122,0.3127,0.3136,0.3141,0.3172,0.3217,0.3157,0.3159,0.3257,0.3259,0.3261,0.3341,0,0,0,0,0,0,0.299,0.2999,0.3009,0.3039,0.3049,0.3093,0.3086,0.309,0.3124,0.3124,0.3143,0.3144,0.3136,0.3169,0.3174,0.3219,0.3161,0.3255,0.3258,0.326,0.3337,0.3346,0.3354,0,0,0,0,0,0.2987,0.2996,0.3009,0.3017,0.306,0.3094,0.31,0.3114,0.3126,0.3137,0.3153,0.3145,0.3189,0.3172,0.3178,0.3224,0.3254,0.3257,0.326,0.3333,0.3344,0.3354,0,0,0,0,0,0,0.2963,0.2998,0.3012,0.3032,0.3064,0.3094,0.3112,0.3132,0.3156,0.316,0.3164,0.3167,0.3224,0.3205,0.3186,0.326,0.3221,0.3225,0.3274,0.3285,0.3293,0.3328,0.3163,0,0,0,0,0,0.2966,0.2984,0.302,0.304,0.3058,0.3095,0.3115,0.3128,0.3153,0.3164,0.3177,0.3196,0.3242,0.3245,0.3275,0.3305,0.3318,0.3337,0.3345,0.3352,0.3384,0.3433,0.3449,0.3272,0.3272,0.3272,0,0,0.296,0.2987,0.2995,0.3037,0.3066,0.3101,0.3104,0.3139,0.3181,0.3165,0.3217,0.3241,0.3263,0.3309,0.3329,0.3293,0.3407,0.3356,0.3363,0.3391,0.3438,0.3456,0.3471,0.3274,0.3274,0.3274,0,0,0.2964,0.2988,0.3008,0.304,0.3088,0.3113,0.313,0.317,0.32,0.325,0.3269,0.3314,0.3348,0.338,0.3403,0.3475,0.3469,0.3476,0.3528,0.3574,0.359,0.3603,0.3633,0.3649,0.3455,0.3455,0.3456,0,0.296,0.2997,0.3019,0.3054,0.3094,0.3124,0.3168,0.3206,0.3249,0.3289,0.327,0.3382,0.3394,0.3488,0.3512,0.35,0.3515,0.3488,0.3587,0.3601,0.3614,0.3641,0.3658,0.346,0.3459,0.3459,0.3458,0,0.2982,0.3021,0.3039,0.3099,0.3138,0.318,0.3237,0.3272,0.3313,0.3355,0.3457,0.3483,0.3544,0.3558,0.3562,0.3667,0.3645,0.3612,0.3565,0.3637,0.366,0.3676,0.3466,0.3464,0.3463,0.3462,0,0,0.2959,0.3039,0.305,0.3091,0.3173,0.3203,0.3281,0.3365,0.3435,0.3475,0.3567,0.3654,0.3675,0.3705,0.3717,0.3753,0.3853,0.3723,0.3723,0.3759,0.3953,0.3886,0.3896,0.3835,0.3838,0.3841,0.3929,0,0.2981,0.3049,0.3094,0.3171,0.3216,0.3276,0.3356,0.3432,0.3503,0.3585,0.3646,0.3747,0.373,0.3778,0.3815,0.3858,0.3901,0.3833,0.3872,0.3874,0.3812,0.3915,0.3637,0.3688,0.3944,0.3947,0.3949,0,0.2997,0.3047,0.3125,0.3228,0.3256,0.3305,0.3437,0.3514,0.3638,0.37,0.3792,0.3846,0.3948,0.3908,0.4017,0.3972,0.3987,0.3998,0.4,0.393,0.3839,0.3659,0.3707,0.3975,0.3973,0.3971,0.3969,0,0.2973,0.307,0.3137,0.3172,0.3287,0.3338,0.3409,0.3544,0.3627,0.3785,0.385,0.397,0.4034,0.4083,0.4114,0.408,0.4205,0.4146,0.4105,0.4098,0.3868,0.3836,0.4239,0.4239,0.4238,0.4238,0.4238,0,0.2987,0.3031,0.3126,0.3156,0.3249,0.3338,0.3454,0.3547,0.3686,0.3782,0.391,0.3993,0.4085,0.4153,0.4163,0.4189,0.4245,0.416,0.4136,0.3885,0.3856,0.4102,0.4085,0.4241,0.4241,0.424,0.424,0,0.295,0.3013,0.3075,0.3189,0.3235,0.3296,0.3446,0.3514,0.3678,0.38,0.3858,0.4028,0.4134,0.4201,0.4288,0.4248,0.4282,0.4272,0.3972,0.3913,0.4129,0.4115,0.4248,0.4247,0.4246,0.4246,0.4245,0,0.2943,0.2967,0.3075,0.3104,0.3153,0.3258,0.3324,0.3491,0.356,0.3801,0.3831,0.4015,0.4098,0.4212,0.4211,0.4244,0.4284,0.3981,0.3879,0.4177,0.414,0.4128,0.4115,0.3595,0.3589,0.3584,0.358,0,0.2907,0.2933,0.2982,0.3044,0.3097,0.3166,0.3265,0.3314,0.3505,0.3616,0.375,0.3856,0.4018,0.3943,0.4017,0.3983,0.3956,0.3885,0.4288,0.364,0.3569,0.353,0.3538,0.3537,0.3541,0.3544,0.3547,0.3549,0.2865,0.2873,0.2919,0.2962,0.3012,0.303,0.3038,0.3135,0.3223,0.3342,0.3535,0.3596,0.3698,0.3673,0.3583,0.3525,0.3788,0.3617,0.3628,0.3646,0.3559,0.3491,0.3427,0.3431,0.3434,0.3436,0.3439,0,0.2792,0.2797,0.2829,0.2847,0.2822,0.2909,0.2954,0.2922,0.2942,0.3105,0.3205,0.304,0.3055,0.3135,0.3014,0.3046,0.2971,0.2901,0.2778,0.2828,0.2871,0.2738,0.2391,0.2387,0.2383,0.2379,0,0,0.2743,0.272,0.272,0.264,0.2655,0.2584,0.2573,0.256,0.2619,0.2614,0.2645,0.2912,0.3072,0.2674,0.2663,0.25,0.2618,0.2402,0.3263,0.317,0.3206,0.3332,0.3194,0,0,0,0,0]},{"header":{"parameterUnit":"m.s-1","parameterCategory":2,"la1":30.2991,"la2":30.254,"lo1":-89.0895,"lo2":-89.0444,"dy":0.0017,"dx":0.0017,"nx":28,"ny":28,"refTime":"2024-02-04T03:00:00:Z","depth":"2","parameterNumber":3,"parameterNumberName":"V-component_of_CURRENTS"},"data":[0,0,0,0,0,0,0,0,0,0,0,0,0,0,0,0,0,0,0,0,0,0,0,0,0,0,0,0,0,0,0,0,0,0,0,0,0,0,0,0,0,0,0,0,0,0,0,0,0,0,0,0,0,0,0,0,0,0,0.0103,0.0102,0,0.0031,0.003,0.003,-0.0015,-0.0016,-0.0016,-0.0016,-0.0115,-0.0118,-0.012,0,0,0,0,0,0,0,0,0,0,0,0,0,0.0154,0.0154,0.0103,0.0102,0.0101,0.0031,0.003,0.0029,-0.0015,-0.0016,-0.0016,-0.0016,-0.0114,-0.0117,-0.012,0,0,0,0,0,0,0,0,0,0,0,0,0,0.0113,0.0154,0.0103,0.007,0.0067,0.0032,0.003,0.0029,-0.0015,-0.0016,-0.0016,-0.0016,-0.0114,-0.0117,-0.0121,-0.0135,0,0,-0.0132,-0.0133,0,0,0,0,0,0,0,0,0.0115,0.0111,0.0076,0.0072,0.0068,0.0016,0.0012,-0.0027,-0.0015,0.0016,-0.0016,-0.0016,-0.0074,-0.008,-0.0093,-0.014,-0.0144,-0.0132,-0.0134,-0.0136,-0.0137,0,0,0,0,0,0,0,0.0118,0.0113,0.0074,0.0075,0.007,0.0043,0.0037,0.0004,-0.0026,0.0013,0.001,0.0002,-0.0076,-0.0089,-0.0095,-0.0146,-0.0132,-0.0135,-0.0137,-0.0139,-0.0207,-0.0206,0,0,0,0,0,0,0.013,0.0116,0.0077,0.0072,0.0091,0.0043,0.0036,0.0034,-0.0026,-0.0035,0.0002,0.0,-0.0083,-0.0091,-0.0099,-0.0103,-0.0136,-0.0139,-0.0141,-0.0207,-0.0206,-0.0206,0,0,0,0,0,0,0.0131,0.0127,0.008,0.0092,0.0084,0.0043,0.004,0.0032,0.002,-0.0033,-0.0043,-0.0002,-0.0083,-0.0094,-0.012,-0.0108,-0.0141,-0.0144,-0.0207,-0.0207,-0.0206,-0.0123,0,0,0,0,0,0,0.0133,0.0128,0.0132,0.0093,0.0084,0.0073,0.004,0.0031,0.0016,0.0012,-0.004,-0.005,-0.0084,-0.0114,-0.0123,-0.0114,-0.0147,-0.0208,-0.0207,-0.0206,-0.0126,-0.0119,-0.0114,0,0,0,0,0,0.0135,0.0147,0.0133,0.0128,0.0091,0.0073,0.0067,0.0035,0.0016,0.0021,-0.0017,-0.0048,-0.0117,-0.0116,-0.0128,-0.0119,-0.0208,-0.0207,-0.0206,-0.0129,-0.0121,-0.0114,0,0,0,0,0,0,0.0171,0.0143,0.0127,0.0129,0.0108,0.0066,0.0065,0.0041,0.0014,0.0008,-0.0044,-0.0055,-0.0078,-0.0109,-0.0107,-0.0137,-0.0168,-0.0169,-0.0105,-0.0098,-0.0092,-0.0066,-0.015,0,0,0,0,0,0.0181,0.0183,0.015,0.0152,0.0145,0.0105,0.0093,0.0072,0.0041,0.0029,-0.0008,-0.0049,-0.0084,-0.0097,-0.0135,-0.0146,-0.0182,-0.0149,-0.0142,-0.0137,-0.0124,-0.0171,-0.0168,-0.0203,-0.0203,-0.0203,0,0,0.0194,0.0179,0.0179,0.016,0.0139,0.0144,0.0098,0.0087,0.0092,0.0022,0.0017,-0.0033,-0.0084,-0.01,-0.0112,-0.0122,-0.0146,-0.0136,-0.0131,-0.0121,-0.017,-0.0167,-0.0164,-0.0203,-0.0203,-0.0203,0,0,0.0228,0.021,0.0226,0.0216,0.0194,0.0172,0.0173,0.0137,0.0124,0.0107,0.0057,0.002,-0.0029,-0.0059,-0.0082,-0.0065,-0.0118,-0.008,-0.0021,-0.0067,-0.0064,-0.0062,-0.0101,-0.0103,-0.0069,-0.0069,-0.0069,0,0.0245,0.0262,0.0228,0.0243,0.0245,0.0192,0.0215,0.0194,0.0155,0.0151,0.0117,0.0041,-0.0008,-0.0024,-0.002,-0.005,-0.0083,-0.0042,-0.0057,-0.0056,-0.0056,-0.0096,-0.01,-0.0065,-0.0065,-0.0066,-0.0066,0,0.0293,0.0307,0.0317,0.0322,0.0318,0.0328,0.0299,0.0297,0.0265,0.0235,0.0204,0.0131,0.0092,0.0064,0.0025,0.0011,-0.0017,-0.005,-0.0072,-0.0047,-0.0092,-0.0097,-0.0059,-0.006,-0.0062,-0.0063,0,0,0.0332,0.035,0.0354,0.0381,0.0364,0.0372,0.0384,0.0383,0.0401,0.0337,0.0346,0.0264,0.0214,0.0185,0.0124,0.0082,0.0048,0.0028,0.0023,-0.0002,-0.0049,-0.0069,-0.0077,0.0011,0.001,0.001,-0.0081,0,0.0384,0.0441,0.0428,0.0485,0.0517,0.0488,0.0509,0.0497,0.0469,0.0464,0.0376,0.0349,0.0264,0.0245,0.0187,0.0084,0.0038,0.0076,-0.0077,-0.0081,-0.0095,-0.0082,-0.0046,-0.0123,-0.0086,-0.0087,-0.0088,0,0.0439,0.0474,0.0544,0.0589,0.0599,0.0625,0.066,0.0669,0.064,0.0615,0.0564,0.0487,0.0417,0.0336,0.0177,0.0205,0.0091,0.0001,-0.0006,-0.0054,-0.011,-0.0144,-0.0135,-0.0097,-0.0096,-0.0095,-0.0095,0,0.0502,0.0556,0.0622,0.0637,0.0675,0.0711,0.0727,0.0721,0.0749,0.0714,0.0722,0.0605,0.0562,0.0403,0.021,0.0194,0.0029,-0.0018,-0.0145,-0.0148,-0.0161,-0.0164,-0.0131,-0.0131,-0.0131,-0.013,-0.013,0,0.0572,0.0623,0.0667,0.0707,0.0798,0.0788,0.0869,0.0871,0.0879,0.0925,0.0807,0.0812,0.0576,0.0449,0.0256,0.0049,0.0061,-0.0128,-0.017,-0.0131,-0.013,-0.0144,-0.0144,-0.0134,-0.0133,-0.0132,-0.0132,0,0.0635,0.0658,0.0743,0.0805,0.0836,0.0902,0.0976,0.1028,0.1023,0.1083,0.1079,0.0969,0.0804,0.0561,0.0303,0.0127,-0.0083,-0.0164,-0.0098,-0.0131,-0.0242,-0.0237,-0.0309,-0.0311,-0.0312,-0.0313,-0.0314,0,0.0674,0.0726,0.0824,0.0886,0.0924,0.1015,0.1081,0.1105,0.1165,0.1186,0.1226,0.1092,0.1016,0.0634,0.029,-0.0041,-0.0089,-0.0221,-0.0252,-0.0225,-0.026,-0.0253,-0.0247,-0.024,-0.024,-0.024,-0.024,0,0.0751,0.0783,0.0854,0.0981,0.1071,0.1174,0.1271,0.1343,0.138,0.143,0.1464,0.1406,0.1053,0.0717,0.0264,0.0044,-0.0168,-0.0235,-0.0225,-0.0195,-0.0166,-0.0198,-0.0193,-0.0242,-0.0242,-0.0241,-0.0241,-0.0241,0.0805,0.0867,0.0959,0.1081,0.1187,0.1317,0.141,0.1512,0.1623,0.1704,0.1642,0.1572,0.1196,0.062,0.0218,-0.0195,-0.0175,-0.0313,-0.031,-0.0308,-0.0278,-0.0253,-0.0338,-0.0339,-0.0339,-0.0339,-0.034,0,0.0868,0.0936,0.1048,0.1188,0.1306,0.1357,0.1523,0.1614,0.1757,0.183,0.1851,0.1507,0.1123,0.0687,0.0073,-0.029,-0.0315,-0.0399,-0.0352,-0.0347,-0.0343,-0.0315,-0.0386,-0.0387,-0.0389,-0.039,0,0,0.0902,0.1008,0.1061,0.1259,0.1362,0.1525,0.1624,0.1769,0.1864,0.1932,0.1901,0.1808,0.1275,0.0826,0.0322,-0.0037,-0.0103,-0.0101,-0.002,0.0102,0.011,-0.0247,-0.0192,0,0,0,0,0]}],[{"header":{"parameterUnit":"m.s-1","parameterCategory":2,"la1":30.2991,"la2":30.254,"lo1":-89.0895,"lo2":-89.0444,"dy":0.0017,"dx":0.0017,"nx":28,"ny":28,"refTime":"2024-02-04T03:00:00:Z","depth":"4","parameterNumber":2,"parameterNumberName":"U-component_of_CURRENTS"},"data":[0,0,0,0,0,0,0,0,0,0,0,0,0,0,0,0,0,0,0,0,0,0,0,0,0,0,0,0,0,0,0,0,0,0,0,0,0,0,0,0,0,0,0,0,0,0,0,0,0,0,0,0,0,0,0,0,0,0,0.1867,0.1868,0,0.1941,0.1941,0.1942,0.1995,0.1996,0.1997,0.1997,0.2066,0.2067,0.2068,0,0,0,0,0,0,0,0,0,0,0,0,0,0.1746,0.1748,0.1867,0.1868,0.187,0.1941,0.1941,0.1942,0.1995,0.1996,0.1997,0.1998,0.2065,0.2067,0.2068,0,0,0,0,0,0,0,0,0,0,0,0,0,0.1804,0.1748,0.1867,0.1907,0.1912,0.1941,0.1942,0.1942,0.1995,0.1996,0.1997,0.1998,0.2065,0.2066,0.2068,0.2056,0,0,0.2073,0.2074,0,0,0,0,0,0,0,0,0.1801,0.1808,0.19,0.1904,0.1909,0.1963,0.1924,0.1981,0.1995,0.196,0.1997,0.1999,0.2032,0.2036,0.2043,0.206,0.2063,0.2073,0.2075,0.2075,0.2076,0,0,0,0,0,0,0,0.1797,0.1805,0.1893,0.1901,0.1907,0.1912,0.1922,0.1935,0.1986,0.1963,0.1968,0.1981,0.2034,0.2042,0.2045,0.2064,0.2073,0.2075,0.2076,0.2077,0.2183,0.2185,0,0,0,0,0,0,0.1795,0.1801,0.1891,0.1896,0.186,0.1914,0.1924,0.1942,0.1986,0.1995,0.198,0.1983,0.2038,0.2043,0.2048,0.214,0.2075,0.2077,0.2078,0.2181,0.2184,0.2186,0,0,0,0,0,0,0.1792,0.1802,0.1888,0.1852,0.1864,0.1916,0.1934,0.1943,0.1991,0.2,0.2008,0.2024,0.2039,0.2046,0.2094,0.2139,0.2078,0.2079,0.2179,0.2182,0.2185,0.2257,0,0,0,0,0,0,0.1788,0.18,0.1832,0.1852,0.1866,0.1932,0.1934,0.1944,0.1996,0.2002,0.204,0.2045,0.2041,0.2092,0.2096,0.214,0.208,0.2177,0.2181,0.2184,0.2253,0.2262,0.227,0,0,0,0,0,0.1783,0.1815,0.1833,0.1845,0.1901,0.1933,0.1941,0.1978,0.1998,0.2024,0.2052,0.2046,0.2117,0.2095,0.2099,0.2145,0.2175,0.218,0.2183,0.2249,0.226,0.227,0,0,0,0,0,0,0.1785,0.1824,0.1844,0.1889,0.1923,0.1944,0.1979,0.2001,0.2043,0.2062,0.2065,0.2072,0.2133,0.2128,0.2103,0.2186,0.2147,0.2152,0.2195,0.2206,0.2214,0.2233,0.2082,0,0,0,0,0,0.1798,0.1834,0.1865,0.1909,0.1926,0.196,0.1987,0.2013,0.2044,0.2066,0.2093,0.2121,0.2146,0.2168,0.2187,0.2229,0.2242,0.2263,0.2272,0.2279,0.2298,0.2347,0.2362,0.2199,0.2199,0.2199,0,0,0.1816,0.184,0.1866,0.1912,0.1941,0.197,0.198,0.2033,0.2068,0.2065,0.2135,0.2157,0.2164,0.2215,0.2242,0.2221,0.2335,0.2285,0.2291,0.2306,0.2353,0.2369,0.2383,0.2202,0.2201,0.2201,0,0,0.1839,0.1887,0.1912,0.1942,0.1993,0.2012,0.2036,0.2082,0.212,0.2176,0.2188,0.2243,0.2276,0.2299,0.2309,0.2379,0.238,0.2387,0.245,0.2497,0.2511,0.2523,0.2568,0.2584,0.2391,0.2392,0.2392,0,0.1864,0.1892,0.1928,0.1952,0.1985,0.2033,0.2065,0.2103,0.2166,0.2203,0.2212,0.2302,0.2316,0.2376,0.2408,0.2402,0.2427,0.2406,0.2509,0.2521,0.2533,0.2576,0.2592,0.2396,0.2395,0.2395,0.2394,0,0.1883,0.1922,0.1942,0.1987,0.203,0.2071,0.2121,0.218,0.2232,0.227,0.2362,0.2394,0.245,0.2465,0.2461,0.2553,0.2546,0.2514,0.2481,0.2554,0.2594,0.261,0.2401,0.24,0.2399,0.2398,0,0,0.1885,0.1944,0.1953,0.1982,0.2055,0.2088,0.2161,0.2231,0.2294,0.2366,0.2447,0.2511,0.2554,0.257,0.2585,0.2634,0.2743,0.2622,0.2622,0.2667,0.286,0.2686,0.2686,0.2731,0.2734,0.2737,0.2858,0,0.1889,0.1929,0.1966,0.2029,0.2055,0.213,0.2195,0.2276,0.2349,0.2441,0.2504,0.2589,0.2583,0.2638,0.2687,0.2738,0.2788,0.2714,0.2783,0.2786,0.2622,0.2699,0.2746,0.287,0.2874,0.2876,0.2878,0,0.1873,0.1909,0.1962,0.205,0.2074,0.2131,0.2255,0.2325,0.2452,0.2516,0.2613,0.2667,0.2782,0.2754,0.2884,0.2841,0.2867,0.2889,0.2893,0.2717,0.2641,0.2781,0.2907,0.2904,0.2902,0.29,0.2899,0,0.1822,0.1899,0.1945,0.1976,0.2087,0.2148,0.2228,0.2356,0.2437,0.2587,0.2663,0.2779,0.2874,0.2926,0.2992,0.2956,0.3114,0.3056,0.292,0.2908,0.2996,0.2981,0.3135,0.3135,0.3135,0.3135,0.3134,0,0.1777,0.1818,0.1934,0.1961,0.2046,0.2146,0.2259,0.2351,0.2505,0.2603,0.2716,0.2802,0.2928,0.3022,0.3041,0.3041,0.3157,0.2954,0.2932,0.3024,0.3011,0.3008,0.2991,0.3139,0.3138,0.3137,0.3136,0,0.1692,0.1765,0.1832,0.197,0.2019,0.2092,0.2269,0.2344,0.2508,0.2642,0.2704,0.2876,0.2992,0.308,0.3189,0.3099,0.3115,0.3078,0.3205,0.3185,0.2865,0.2852,0.2933,0.2928,0.2923,0.292,0.2917,0,0.1643,0.1671,0.1825,0.1877,0.1944,0.2068,0.2145,0.2324,0.2411,0.2658,0.2708,0.2893,0.2978,0.2996,0.3094,0.312,0.3073,0.3057,0.2926,0.2876,0.2848,0.2841,0.2833,0.291,0.2909,0.2908,0.2907,0,0.1565,0.1639,0.1697,0.1804,0.1895,0.1982,0.2117,0.2164,0.2376,0.2544,0.2646,0.2707,0.2831,0.2895,0.2945,0.2948,0.3051,0.3011,0.3018,0.2895,0.2849,0.2824,0.2821,0.2892,0.2894,0.2895,0.2896,0,0.1518,0.1538,0.1633,0.1713,0.1818,0.187,0.195,0.2055,0.2164,0.2428,0.2463,0.2642,0.2815,0.281,0.2856,0.2851,0.2789,0.2672,0.2695,0.2713,0.258,0.2486,0.2417,0,0,0,0,0,0.1461,0.1471,0.1535,0.1612,0.1708,0.1777,0.192,0.2008,0.2206,0.2218,0.2337,0.2434,0.2506,0.2603,0.2551,0.2753,0.2797,0.2679,0.2673,0.281,0.2827,0.2688,0,0,0,0,0,0,0.1422,0.1471,0.1491,0.1514,0.155,0.1642,0.1726,0.1856,0.1878,0.2083,0.2137,0.2292,0.2399,0.2519,0.251,0.2537,0.2482,0.2798,0.2791,0.28,0.2816,0.2829,0.2693,0,0,0,0,0]},{"header":{"parameterUnit":"m.s-1","parameterCategory":2,"la1":30.2991,"la2":30.254,"lo1":-89.0895,"lo2":-89.0444,"dy":0.0017,"dx":0.0017,"nx":28,"ny":28,"refTime":"2024-02-04T03:00:00:Z","depth":"4","parameterNumber":3,"parameterNumberName":"V-component_of_CURRENTS"},"data":[0,0,0,0,0,0,0,0,0,0,0,0,0,0,0,0,0,0,0,0,0,0,0,0,0,0,0,0,0,0,0,0,0,0,0,0,0,0,0,0,0,0,0,0,0,0,0,0,0,0,0,0,0,0,0,0,0,0,0.0159,0.0158,0,0.0121,0.012,0.012,0.0092,0.0092,0.0092,0.0092,0.0034,0.0033,0.0032,0,0,0,0,0,0,0,0,0,0,0,0,0,0.0188,0.0187,0.0159,0.0158,0.0158,0.0121,0.012,0.012,0.0092,0.0092,0.0092,0.0091,0.0035,0.0033,0.0031,0,0,0,0,0,0,0,0,0,0,0,0,0,0.0165,0.0187,0.0159,0.014,0.0138,0.0121,0.012,0.0119,0.0092,0.0092,0.0092,0.0091,0.0035,0.0033,0.0031,0.0025,0,0,0.0025,0.0024,0,0,0,0,0,0,0,0,0.0166,0.0163,0.0143,0.0141,0.0139,0.0111,0.0109,0.0087,0.0092,0.0109,0.0092,0.0091,0.0059,0.0055,0.0048,0.0022,0.002,0.0025,0.0024,0.0023,0.0022,0,0,0,0,0,0,0,0.0168,0.0165,0.0143,0.0143,0.014,0.0126,0.0123,0.0105,0.0085,0.0108,0.0106,0.0102,0.0057,0.005,0.0046,0.0019,0.0025,0.0023,0.0022,0.0021,-0.001,-0.001,0,0,0,0,0,0,0.0174,0.0167,0.0145,0.0142,0.0152,0.0126,0.0122,0.012,0.0086,0.0081,0.0102,0.0101,0.0053,0.0049,0.0044,0.0047,0.0023,0.0021,0.002,-0.0011,-0.001,-0.001,0,0,0,0,0,0,0.0175,0.0173,0.0146,0.0154,0.0149,0.0126,0.0124,0.0119,0.0115,0.0082,0.0076,0.0103,0.0053,0.0047,0.0035,0.0044,0.002,0.0018,-0.0011,-0.001,-0.001,0.0044,0,0,0,0,0,0,0.0176,0.0173,0.0177,0.0154,0.0149,0.0144,0.0124,0.0119,0.0113,0.0111,0.0081,0.0075,0.0052,0.0038,0.0033,0.004,0.0017,-0.0012,-0.0011,-0.001,0.0041,0.0046,0.005,0,0,0,0,0,0.0177,0.0185,0.0178,0.0175,0.0154,0.0145,0.0141,0.0123,0.0114,0.0117,0.0096,0.0076,0.0039,0.0037,0.0031,0.0038,-0.0012,-0.0011,-0.001,0.0039,0.0045,0.005,0,0,0,0,0,0,0.0198,0.0183,0.0174,0.0176,0.0165,0.014,0.0142,0.0129,0.0115,0.0113,0.0081,0.0074,0.0066,0.0045,0.0044,0.0031,0.001,0.001,0.005,0.0055,0.0059,0.0076,0.0015,0,0,0,0,0,0.0205,0.0209,0.0189,0.0192,0.0189,0.0167,0.0162,0.0149,0.0132,0.0126,0.0104,0.0081,0.0065,0.0055,0.0036,0.003,-0.0005,0.003,0.0034,0.0038,0.0047,-0.0005,-0.0005,-0.0007,-0.0007,-0.0007,0,0,0.0213,0.0206,0.0207,0.0197,0.0186,0.0194,0.0163,0.016,0.0167,0.0122,0.0125,0.0096,0.0066,0.0059,0.0054,0.0043,0.0019,0.0039,0.0042,0.005,-0.0004,-0.0004,-0.0004,-0.0006,-0.0006,-0.0007,0,0,0.0236,0.0225,0.0239,0.0235,0.0226,0.0215,0.0217,0.0197,0.019,0.0186,0.0156,0.0133,0.0109,0.0088,0.0075,0.0091,0.0044,0.0084,0.0119,0.0069,0.0068,0.0067,0.0021,0.0016,0.0086,0.0086,0.0086,0,0.0246,0.0263,0.0242,0.0256,0.0262,0.023,0.0251,0.0239,0.0218,0.0215,0.0195,0.0151,0.0123,0.0112,0.0119,0.0101,0.0065,0.0103,0.0074,0.0072,0.0071,0.0023,0.0017,0.0089,0.0089,0.0088,0.0088,0,0.0282,0.0297,0.0306,0.0317,0.0319,0.033,0.0315,0.0314,0.0298,0.0278,0.0259,0.0213,0.0187,0.0171,0.0151,0.0131,0.0107,0.0085,0.0062,0.0074,0.0023,0.0016,0.0093,0.0092,0.0091,0.009,0,0,0.0301,0.0328,0.0332,0.0355,0.0355,0.0363,0.0377,0.0379,0.0389,0.0348,0.0349,0.0305,0.0267,0.025,0.021,0.0166,0.012,0.0128,0.0124,0.0084,0.0008,0.0007,-0.0002,0.0089,0.0088,0.0087,-0.0024,0,0.0339,0.0388,0.0388,0.0437,0.0464,0.0449,0.0468,0.0461,0.0441,0.0431,0.0368,0.0352,0.0301,0.0289,0.0235,0.0153,0.0103,0.0152,0.0,-0.0004,-0.0005,-0.001,0.0084,-0.003,-0.0032,-0.0033,-0.0034,0,0.0378,0.0409,0.047,0.0512,0.0521,0.0547,0.0572,0.0583,0.0554,0.0535,0.0492,0.0438,0.0378,0.0328,0.0184,0.0218,0.0123,0.0049,0.0042,0.002,-0.0018,-0.0046,-0.0049,-0.0048,-0.0046,-0.0045,-0.0045,0,0.0415,0.0467,0.0525,0.0539,0.0578,0.0607,0.0625,0.0618,0.0637,0.0602,0.06,0.0505,0.0469,0.0335,0.0185,0.0181,0.0016,-0.0012,-0.0106,-0.0107,-0.0098,-0.0096,-0.0119,-0.0119,-0.0119,-0.0118,-0.0118,0,0.0459,0.0503,0.0554,0.0586,0.066,0.0662,0.0723,0.0722,0.0724,0.0749,0.066,0.0648,0.0468,0.0352,0.0202,0.003,0.0024,-0.0098,-0.0135,-0.0073,-0.0067,-0.0104,-0.0101,-0.0123,-0.0122,-0.0121,-0.012,0,0.0493,0.0525,0.0594,0.0654,0.0685,0.0736,0.0803,0.0834,0.0829,0.0859,0.0854,0.0754,0.0604,0.0411,0.0193,0.0068,-0.0107,-0.0169,-0.0081,-0.0112,-0.0204,-0.0196,-0.0286,-0.0287,-0.0288,-0.0288,-0.0289,0,0.0514,0.0557,0.065,0.0701,0.0738,0.0815,0.0869,0.0893,0.0928,0.0924,0.094,0.0817,0.0724,0.0421,0.0208,-0.0086,-0.0129,-0.0223,-0.0221,-0.0193,-0.0221,-0.0212,-0.0204,-0.029,-0.029,-0.0291,-0.0291,0,0.0551,0.0588,0.0646,0.0754,0.083,0.0916,0.0993,0.1027,0.1053,0.1051,0.1014,0.0857,0.0686,0.0438,0.0209,-0.0002,-0.0164,-0.0232,-0.0233,-0.0231,-0.02,-0.0224,-0.0215,-0.0294,-0.0293,-0.0293,-0.0293,0,0.0576,0.062,0.07,0.0796,0.0895,0.0986,0.1024,0.1069,0.1106,0.1098,0.1085,0.0897,0.0791,0.0481,0.0272,0.0062,0.0003,-0.0069,-0.0079,-0.0079,0.0011,0.0083,0.0047,0,0,0,0,0,0.0596,0.0646,0.0732,0.0837,0.0934,0.1002,0.1095,0.1121,0.115,0.1137,0.1115,0.0958,0.0654,0.0524,0.0314,0.0235,-0.0048,-0.002,-0.0139,-0.0309,-0.0305,-0.0236,0,0,0,0,0,0,0.0605,0.0686,0.073,0.0858,0.0934,0.1049,0.1114,0.1137,0.113,0.1127,0.0972,0.0902,0.0605,0.0776,0.031,0.0246,0.014,-0.0159,-0.0164,-0.031,-0.0307,-0.0305,-0.0232,0,0,0,0,0]}]]